{"data":{"norad_id":65901,"intl_designator":"2025-224V","name":"STARLINK-35249","alt_names":[],"object_type":"PAYLOAD","status":"ACTIVE","operator":null,"country":"US","launch_date":"2025-10-07","launch_site_code":"AFETR","launch_vehicle":null,"mission":null,"orbit_class":"UNKNOWN","rcs_meters":null,"size_class":null,"mass_kg":null,"dimensions":null,"purposes":["comms"],"wikipedia_slug":null,"has_3d_model":false,"image_url":null,"decayed_at":null,"tle_current":{"epoch":"2026-05-25T01:14:02.923872Z","epoch_age_seconds":74110,"freshness":"FRESH","line1":"1 65901U 25224V   26145.05142273  .00020275  00000+0  69449-3 0  9998","line2":"2 65901  53.1603  16.7910 0001026  74.2284 285.8830 15.30215452 36541","mean_motion":15.30215452,"eccentricity":0.0001026,"inclination_deg":53.1603,"raan_deg":16.791,"arg_perigee_deg":74.2284,"mean_anomaly_deg":285.883,"bstar":0.00069449,"rev_number":3654,"period_min":94.104395437774,"perigee_km":474.46578373209,"apogee_km":475.87208210952,"semimajor_km":6853.3059329208,"source":"CELESTRAK","updated_at":"2026-05-25T13:38:20.983002Z"}}}